◎C/2006 T1の軌道と予報位置です



 上尾の門田健一氏から10月8日早朝JSTの観測が報告されました.氏のCCD

全光度は10.7等でした.同日朝,ぶあつい雲の中(直前までは快晴だった)

洲本でも,追跡観測を行ないました.また,美星からも観測の報告がありま

 彗星の動きは,すでに放物線軌道からのずれは大きく,この彗星は,短周

期彗星の1つでした.なお,まだ,周期は大きく不確かです.



    C/2006 T1 (Levy)

T 2006 Oct. 7.58215 TT                                  Nakano

q   0.9920373            (2000.0)            P               Q

n   0.18172908     Peri.  179.65023     -0.16736072     -0.93577813

a   3.0868801      Node   279.96637     +0.90377479     -0.01984661

e   0.6786279      Incl.   18.36642     +0.39393085     -0.35203040

P   5.42 (+/-23.28 days)

From 86 observations 2006 Oct. 2-7.

Residuals in seconds of arc 

2006/                     061003 854  1.1-  1.1+    061004 J95  0.0   0.2-  

061002 G92  0.3+  1.4-    061003 854 (2.3+  0.4+)   061004 J95  0.1+  0.1-  

061002 G92  0.5-  0.0     061003 G92  0.4+  0.5-    061004 J77  0.3+  0.6-  

061002 G92  0.2+  0.9-    061003 854  1.0+  0.1+    061004 J77  0.1+  1.0-  

061002 G92  0.6-  0.4+    061003 H06  0.6+  0.3-    061004 J77  0.4+  0.2-  

061002 G92  0.6+  0.6-    061003 G92  0.6+  0.1+    061004 J77  0.4-  0.3-  

061002 G92  0.2-  0.3+    061003 H06  0.6+  0.4+    061004 850  0.1+  0.3+  

061003 461  0.3-  0.7+    061003 H06  0.2-  0.1+    061004 850  0.1+  0.1-  

061003 461  0.1-  0.6+    061003 H06  0.3+  0.1+    061004 850  0.3+  0.2-  

061003 461  0.2-  0.8+    061003 H06  0.4+  0.0     061004 850  0.3-  0.1+  

061003 461  0.0   0.7+    061003 H06  0.1+  0.2-    061004 H07 (2.5-  1.1+) 

061003 461  1.5+  0.4-    061003 G92  0.3+  0.6+    061004 H07  1.7-  0.9+  

061003 J95  0.1+  0.1+    061003 G92  0.4+  0.3+    061004 H07  1.0-  0.5+  

061003 J95  0.2-  0.0     061003 G92  1.2+  0.6-    061004 H06  0.1-  0.0   

061003 J95  0.2-  0.1-    061003 G92  0.6+  0.1+    061004 H06  0.2+  0.6-  

061003 J95  0.2-  0.0     061003 G92  0.2+  1.0+    061004 H06  0.1+  0.4-  

061003 J95  0.4-  0.0     061003 G92  0.3+  0.4+    061005 850  0.3+  0.0   

061003 J95  0.5-  0.3-    061003 G92  0.1-  0.7+    061005 850  0.2+  0.2-  

061003 J95  0.2-  0.3-    061003 G92  0.2+  1.2+    061005 850  0.1+  0.3-  

061003 J95  0.2-  0.1-    061003 G92  0.0   0.7+    061005 850  0.4+  0.5-  

061003 J77  0.5-  1.0-    061003 G92  0.6+  0.2+    061007 349  0.3+  0.2+  

061003 J77  0.4+  0.1-    061003 G92  0.3-  1.0-    061007 349  0.3+  0.0   

061003 J77  0.6+  0.9-    061003 G92  0.4+  0.1-    061007 349  0.2+  0.2-  

061003 J77  0.4-  0.1-    061003 361  0.2+  1.1+    061007 300  0.3-  0.1-  

061003 J77  0.6+  0.2-    061003 361  1.0-  0.3+    061007 300  0.5-  1.3+  

061003 J77  0.6-  0.2+    061003 361  0.3+  1.1-    061007 300  0.4-  0.8+  

061003 J77  0.0   0.2+    061003 361  0.0   0.5-    061007 361  0.1+  1.9-  

061003 J77  0.7-  0.2+    061003 361  0.8-  0.2-    061007 361  0.5-  0.2+  

061003 J77  1.2-  0.4+    061003 361  0.9-  0.2+    061007 361  0.7+  0.1+  

061003 G92  0.1+  0.6+    061004 J95  0.1-  0.2-                            



2006/        α  (2000) δ      △      r      Elong. Phase    m1   天文薄明開

始時

 28h JST    h  m       。  ,        AU      AU      。      。      等     h。    A 。 

Oct.  5   09 50.40  +13 44.2    1.348   0.992    47.2   47.7    9.6   +28.2  272.9

      6   09 54.25  +13 04.9    1.350   0.992    47.1   47.6    9.6   +28.0  273.7

      7   09 58.06  +12 25.6    1.353   0.992    47.0   47.4    9.6   +27.8  274.4

      8   10 01.84  +11 46.2    1.356   0.992    46.9   47.3    9.6   +27.6  275.2

      9   10 05.58  +11 06.9    1.359   0.993    46.8   47.2    9.6   +27.5  276.0

     10   10 09.29  +10 27.5    1.362   0.993    46.7   47.0    9.6   +27.3  276.7

     11   10 12.97  +09 48.1    1.366   0.994    46.6   46.9    9.6   +27.2  277.5

     12   10 16.62  +09 08.8    1.369   0.995    46.5   46.7    9.7   +27.0  278.3

     13   10 20.23  +08 29.6    1.373   0.996    46.4   46.5    9.7   +26.9  279.1

     14   10 23.82  +07 50.4    1.376   0.997    46.4   46.4    9.7   +26.7  279.9

     15   10 27.37  +07 11.3    1.380   0.999    46.3   46.2    9.7   +26.6  280.7

     16   10 30.90  +06 32.3    1.384   1.001    46.3   46.0    9.7   +26.4  281.4

     17   10 34.40  +05 53.5    1.388   1.003    46.2   45.9    9.7   +26.3  282.2

     18   10 37.86  +05 14.8    1.392   1.005    46.2   45.7    9.7   +26.2  283.0

     19   10 41.30  +04 36.2    1.396   1.007    46.2   45.5    9.8   +26.0  283.8

     20   10 44.72  +03 57.9    1.400   1.010    46.1   45.3    9.8   +25.9  284.6

     21   10 48.10  +03 19.7    1.404   1.012    46.1   45.1    9.8   +25.8  285.4

     22   10 51.46  +02 41.7    1.408   1.015    46.1   45.0    9.8   +25.7  286.2

     23   10 54.80  +02 03.9    1.412   1.018    46.1   44.8    9.8   +25.5  287.0

     24   10 58.10  +01 26.3    1.417   1.022    46.1   44.6    9.8   +25.4  287.8

     25   11 01.39  +00 48.9    1.421   1.025    46.2   44.4    9.9   +25.3  288.6

     26   11 04.64  +00 11.8    1.426   1.029    46.2   44.2    9.9   +25.2  289.4

     27   11 07.88  -00 25.0    1.430   1.032    46.2   44.0    9.9   +25.1  290.1

     28   11 11.09  -01 01.6    1.435   1.036    46.3   43.8    9.9   +25.0  290.9

     29   11 14.28  -01 38.0    1.439   1.041    46.3   43.6   10.0   +24.9  291.7

     30   11 17.44  -02 14.0    1.444   1.045    46.4   43.4   10.0   +24.8  292.5

     31   11 20.58  -02 49.8    1.449   1.049    46.4   43.3   10.0   +24.8  293.3

Nov.  1   11 23.70  -03 25.3    1.453   1.054    46.5   43.1   10.0   +24.7  294.1

      2   11 26.80  -04 00.6    1.458   1.059    46.6   42.9   10.1   +24.6  294.9

      3   11 29.88  -04 35.5    1.463   1.064    46.6   42.7   10.1   +24.5  295.7

      4   11 32.94  -05 10.1    1.467   1.069    46.7   42.5   10.1   +24.4  296.5

      5   11 35.97  -05 44.4    1.472   1.074    46.8   42.3   10.1   +24.4  297.3

                    m1 =  9.0 + 5 log △ + 10.0 log r

NAKANO

         **** Don't distribute anyone except personal use only ****

                (C) Copyright 2006 OAA/ComputingSection

write mail from CFAD0::NAKANO on 2006-10-08 06:32:42(JST).

 

◎C/2006 T1の軌道と予報位置です



  洲本で追跡観測を行ないました.眼視光度観測は9等級のようです.

中央集光が強く,どちらかの方向(位置角などわからん)に太くて長い

尾が写っているフレームもあります.



    C/2006 T1 (Levy)

T 2006 Oct. 8.55548 TT                                  Nakano

q   1.0686399            (2000.0)            P               Q

                   Peri.  180.90300     -0.26049766     -0.91248126

                   Node   284.24595     +0.88783337     -0.09802256

e   1.0            Incl.   18.99436     +0.37933214     -0.39720212

From 46 observations 2006 Oct. 2-3.



2006/        α  (2000) δ      △      r    Elong. Phase    m1   天文薄明開始

時

 28h JST    h  m       。  ,        AU      AU      。      。      等     h。    A 

。 

Oct.  1   09 34.65  +16 20.3    1.452   1.075    47.7   43.6   10.1   +28.9  269

.9

      2   09 38.64  +15 41.5    1.453   1.073    47.6   43.5   10.1   +28.7  270

.7

      3   09 42.60  +15 02.5    1.454   1.072    47.5   43.5   10.1   +28.5  271

.4

      4   09 46.52  +14 23.4    1.456   1.070    47.3   43.4   10.1   +28.3  272

.2

      5   09 50.39  +13 44.2    1.458   1.070    47.2   43.3   10.1   +28.2  272

.9

      6   09 54.24  +13 04.9    1.460   1.069    47.1   43.2   10.1   +28.0  273

.7

      7   09 58.04  +12 25.5    1.462   1.069    47.0   43.1   10.1   +27.8  274

.4

      8   10 01.81  +11 46.0    1.464   1.069    46.9   43.0   10.1   +27.6  275

.2

      9   10 05.54  +11 06.6    1.467   1.069    46.8   42.9   10.1   +27.5  276

.0

     10   10 09.24  +10 27.1    1.470   1.069    46.7   42.8   10.1   +27.3  276

.8

     11   10 12.90  +09 47.7    1.472   1.070    46.6   42.7   10.1   +27.2  277

.5

     12   10 16.52  +09 08.3    1.475   1.071    46.5   42.6   10.1   +27.0  278

.3

     13   10 20.12  +08 29.0    1.479   1.072    46.5   42.4   10.2   +26.9  279

.1

     14   10 23.67  +07 49.8    1.482   1.074    46.4   42.3   10.2   +26.7  279

.9

     15   10 27.20  +07 10.7    1.486   1.075    46.4   42.1   10.2   +26.6  280

.7

     16   10 30.69  +06 31.6    1.489   1.077    46.3   42.0   10.2   +26.5  281

.5

     17   10 34.14  +05 52.8    1.493   1.080    46.3   41.8   10.2   +26.3  282

.3

     18   10 37.57  +05 14.1    1.497   1.082    46.3   41.7   10.2   +26.2  283

.1

     19   10 40.96  +04 35.5    1.501   1.085    46.2   41.5   10.2   +26.1  283

.9

     20   10 44.32  +03 57.1    1.505   1.088    46.2   41.4   10.3   +26.0  284

.7

     21   10 47.65  +03 19.0    1.509   1.091    46.2   41.2   10.3   +25.9  285

.5

     22   10 50.95  +02 41.0    1.514   1.094    46.2   41.0   10.3   +25.8  286

.3

     23   10 54.22  +02 03.3    1.518   1.098    46.3   40.9   10.3   +25.7  287

.1

     24   10 57.46  +01 25.8    1.523   1.102    46.3   40.7   10.3   +25.6  287

.9

     25   11 00.67  +00 48.6    1.527   1.106    46.3   40.5   10.4   +25.5  288

.7

     26   11 03.85  +00 11.6    1.532   1.111    46.4   40.4   10.4   +25.4  289

.5

     27   11 07.00  -00 25.1    1.537   1.115    46.4   40.2   10.4   +25.3  290

.3

     28   11 10.13  -01 01.5    1.542   1.120    46.5   40.0   10.4   +25.2  291

.1

     29   11 13.22  -01 37.6    1.547   1.125    46.6   39.9   10.5   +25.1  291

.9

     30   11 16.29  -02 13.5    1.552   1.130    46.6   39.7   10.5   +25.1  292

.7

     31   11 19.33  -02 49.0    1.557   1.136    46.7   39.5   10.5   +25.0  293

.5

Nov.  1   11 22.34  -03 24.3    1.562   1.141    46.8   39.3   10.5   +24.9  294

.3

                    m1 =  9.0 + 5 log △ + 10.0 log r

NAKANO

         **** Don't distribute anyone except personal use only ****

                (C) Copyright 2006 OAA/ComputingSection

write mail from CFAD0::NAKANO on 2006-10-04 05:48:31(JST).



戻ります。